Rome, GA

5:26 PM EDT on April 25, 2018 (GMT -0400)
Russell

Weather History for KRMG - February, 2013

Change the Weather History Date:

Monday, February 11, 2013

  Actual Average Record
Temperature  
Mean Temperature 52 °F 43 °F  
Max Temperature 56 °F 55 °F 73 °F (1999)
Min Temperature 46 °F 32 °F 19 °F (2011)
Degree Days  
Heating Degree Days 13 22  
Month to date heating degree days 247  
Since 1 July heating degree days 2289  
Growing Degree Days 2 (Base 50)    
Moisture  
Dew Point 52 °F    
Average Humidity 97    
Maximum Humidity 100    
Minimum Humidity 75    
Precipitation  
Precipitation 0.28 in 0.15 in 1.60 in (2018)
Month to date precipitation 1.77  
Year to date precipitation 6.59  
Snow  
Snow 0.00 in - - ()
Month to date snowfall  
Since 1 July snowfall  
Snow Depth -    
Sea Level Pressure  
Sea Level Pressure 30.08 in    
Wind  
Wind Speed 2 mph (WSW)    
Max Wind Speed 8 mph    
Max Gust Speed -    
Visibility 5 miles    
Events Rain    
T = Trace of Precipitation, MM = Missing Value Source: NWS Daily Summary

Daily Weather History Graph

Daily Weather History Graph

Search for Another Location

Airport or City:

Astronomy

Feb. 11, 2013 Rise Set
Actual Time 7:29 AM EST 6:20 PM EST
Civil Twilight 7:03 AM EST 6:46 PM EST
Nautical Twilight 6:34 AM EST 7:16 PM EST
Astronomical Twilight 6:04 AM EST 7:45 PM EST
Moon 7:59 AM EST (2/11) 8:09 PM EST (2/11)
Length of Visible Light 11h 42m
Length of Day
10h 51m
Waxing Crescent, 3% of the Moon is Illuminated
Feb 11
Waxing Crescent
Feb 17
First Quarter
Feb 25
Full
Mar 4
Last Quarter
Mar 11
New

Hourly Weather History & Observations

Time (EST) Temp. Dew Point Humidity Pressure Visibility Wind Dir Wind Speed Gust Speed Precip Events Conditions
12:53 AM 52.0 °F 52.0 °F 100% 30.03 in 8.0 mi SSE 6.9 mph - 0.08 in Rain Light Rain
1:53 AM 53.1 °F 52.0 °F 96% 30.02 in 10.0 mi Calm Calm - 0.00 in   Overcast
2:53 AM 53.1 °F 52.0 °F 96% 30.06 in 10.0 mi SSE 3.5 mph - 0.00 in Rain Light Rain
3:14 AM 51.8 °F 51.8 °F 100% 30.07 in 2.0 mi Calm Calm - 0.10 in Rain Heavy Rain
3:23 AM 51.8 °F 51.8 °F 100% 30.07 in 5.0 mi Calm Calm - 0.12 in Rain Light Rain
3:53 AM 52.0 °F 52.0 °F 100% 30.04 in 4.0 mi Calm Calm - 0.22 in Rain Light Rain
4:18 AM 51.8 °F 51.8 °F 100% 30.04 in 9.0 mi North 3.5 mph - 0.01 in   Overcast
4:53 AM 52.0 °F 52.0 °F 100% 30.03 in 7.0 mi Calm Calm - 0.01 in Rain Light Rain
5:53 AM 52.0 °F 52.0 °F 100% 30.03 in 7.0 mi Calm Calm - 0.02 in   Overcast
6:37 AM 51.8 °F 51.8 °F 100% 30.06 in 2.0 mi Calm Calm - 0.01 in Rain Light Rain
6:48 AM 51.8 °F 51.8 °F 100% 30.06 in 4.0 mi Calm Calm - 0.01 in Rain Light Rain
6:53 AM 51.1 °F 51.1 °F 100% 30.04 in 2.0 mi SE 3.5 mph - 0.01 in Rain Light Rain
6:58 AM 51.8 °F 51.8 °F 100% 30.06 in 1.2 mi Calm Calm - 0.01 in Rain Light Rain
7:06 AM 51.8 °F 51.8 °F 100% 30.06 in 1.8 mi Calm Calm - 0.02 in Rain Light Rain
7:14 AM 51.8 °F 51.8 °F 100% 30.05 in 2.5 mi Calm Calm - 0.02 in   Overcast
7:38 AM 51.8 °F 51.8 °F 100% 30.06 in 4.0 mi Calm Calm - 0.02 in   Overcast
7:53 AM 52.0 °F 52.0 °F 100% 30.05 in 2.5 mi Calm Calm - 0.02 in   Overcast
8:00 AM 51.8 °F 51.8 °F 100% 30.06 in 1.2 mi Calm Calm - N/A   Overcast
8:21 AM 51.8 °F 51.8 °F 100% 30.06 in 3.0 mi Calm Calm - N/A   Overcast
8:31 AM 51.8 °F 51.8 °F 100% 30.06 in 1.8 mi Calm Calm - N/A   Overcast
8:39 AM 51.8 °F 51.8 °F 100% 30.07 in 1.5 mi NNW 5.8 mph - N/A   Overcast
8:45 AM 51.8 °F 51.8 °F 100% 30.07 in 3.0 mi NNW 5.8 mph - N/A   Overcast
8:53 AM 52.0 °F 52.0 °F 100% 30.08 in 5.0 mi NNW 4.6 mph - N/A   Overcast
9:18 AM 53.6 °F 51.8 °F 94% 30.10 in 5.0 mi NW 3.5 mph - N/A   Overcast
9:30 AM 53.6 °F 53.6 °F 100% 30.10 in 1.8 mi Calm Calm - N/A   Overcast
9:40 AM 53.6 °F 53.6 °F 100% 30.11 in 2.0 mi Calm Calm - N/A   Overcast
9:44 AM 53.6 °F 51.8 °F 94% 30.11 in 3.0 mi Calm Calm - N/A   Overcast
9:53 AM 53.1 °F 53.1 °F 100% 30.10 in 3.0 mi Calm Calm - N/A   Overcast
10:03 AM 53.6 °F 53.6 °F 100% 30.11 in 3.0 mi Calm Calm - N/A   Overcast
10:24 AM 53.6 °F 53.6 °F 100% 30.12 in 4.0 mi Calm Calm - N/A   Overcast
10:37 AM 53.6 °F 53.6 °F 100% 30.11 in 4.0 mi Calm Calm - N/A   Overcast
10:53 AM 54.0 °F 54.0 °F 100% 30.09 in 4.0 mi SE 3.5 mph - N/A   Overcast
11:53 AM 55.0 °F 55.0 °F 100% 30.09 in 4.0 mi South 5.8 mph - N/A   Overcast
12:30 PM 55.4 °F 55.4 °F 100% 30.14 in 5.0 mi SSW 4.6 mph - N/A   Mostly Cloudy
12:44 PM 55.4 °F 55.4 °F 100% 30.10 in 5.0 mi South 8.1 mph - N/A   Overcast
12:53 PM 55.9 °F 55.0 °F 97% 30.11 in 5.0 mi West 4.6 mph - N/A   Overcast
1:08 PM 55.4 °F 55.4 °F 100% 30.13 in 6.0 mi West 5.8 mph - N/A   Overcast
1:26 PM 55.4 °F 55.4 °F 100% 30.12 in 8.0 mi Calm Calm - N/A   Overcast
1:53 PM 55.9 °F 55.0 °F 97% 30.10 in 10.0 mi SSW 3.5 mph - N/A   Mostly Cloudy
2:53 PM 55.9 °F 50.0 °F 80% 30.07 in 10.0 mi Calm Calm - N/A   Overcast
3:53 PM 55.9 °F 48.0 °F 75% 30.11 in 10.0 mi WNW 6.9 mph - N/A   Mostly Cloudy
4:53 PM 54.0 °F 48.9 °F 83% 30.09 in 10.0 mi West 3.5 mph - N/A   Clear
5:53 PM 54.0 °F 46.9 °F 77% 30.09 in 10.0 mi Calm Calm - N/A   Clear
6:53 PM 50.0 °F 48.9 °F 96% 30.09 in 10.0 mi WSW 3.5 mph - N/A   Clear
7:53 PM 48.9 °F 48.0 °F 97% 30.08 in 10.0 mi Calm Calm - N/A   Clear
8:53 PM 50.0 °F 48.9 °F 96% 30.09 in 10.0 mi SSW 3.5 mph - N/A   Clear
9:53 PM 48.0 °F 46.9 °F 96% 30.09 in 10.0 mi North 3.5 mph - N/A   Scattered Clouds
10:53 PM 48.0 °F 46.9 °F 96% 30.14 in 10.0 mi Calm Calm - N/A   Partly Cloudy
11:53 PM 46.9 °F 46.9 °F 100% 30.11 in 6.0 mi Calm Calm - N/A   Scattered Clouds